Total_Precipitation_Accumulation
2.01 2.42 2.71 3.26 3.86 4.25 4.63 4.79 4.81 4.74 4.58 4.24 3.95 3.71 3.47 3.25 2.99 2.80 2.71 2.61 2.52 2.73 3.18 3.00 3.24 3.18 3.18 3.19 3.24 3.39 3.31 3.03 3.22 3.31 2.89 2.31 1.88 1.86 1.64 1.59 1.63 1.69 1.68
1.91 2.43 2.72 2.94 3.39 3.89 4.34 4.64 4.80 4.69 4.32 3.98 3.82 3.72 3.69 3.29 2.99 2.95 3.07 2.89 2.90 2.94 2.98 3.16 3.12 3.17 3.29 3.23 3.22 3.37 3.17 2.82 3.08 3.44 3.51 2.83 2.41 1.96 1.48 1.59 1.70 1.84 1.94
2.18 2.45 2.63 2.79 3.06 3.45 3.74 3.84 4.02 3.97 3.82 3.88 3.92 3.87 3.90 3.48 3.38 3.38 3.38 3.17 3.16 3.17 3.17 3.13 3.03 3.04 2.85 2.93 3.01 3.03 3.05 2.97 2.91 3.24 3.58 3.16 2.66 2.31 1.74 1.61 1.63 1.87 2.16
1.82 1.98 2.29 2.60 2.76 2.99 3.31 3.53 3.59 3.55 3.48 3.60 3.67 3.57 3.40 3.26 3.41 3.69 3.63 3.33 3.11 2.98 2.80 2.73 2.88 2.91 2.69 2.72 2.40 2.55 2.74 2.76 2.61 2.88 2.97 3.01 2.99 2.90 2.23 1.79 1.62 1.77 1.98
1.58 1.68 1.87 2.19 2.31 2.59 2.87 3.11 3.37 3.48 3.43 3.51 3.48 3.51 3.36 3.36 3.42 3.40 3.42 3.21 3.02 2.70 2.37 2.38 2.57 2.54 2.45 2.37 2.26 2.42 2.32 2.29 2.36 2.58 2.77 2.85 2.93 2.82 2.65 2.23 2.16 2.09 1.95
1.40 1.58 1.73 2.00 2.14 2.26 2.38 2.52 2.72 2.99 3.17 3.24 3.22 3.26 3.21 3.19 3.14 3.06 2.94 2.73 2.58 2.37 2.09 1.99 2.16 2.27 2.29 2.26 2.25 2.32 2.23 2.28 2.42 2.42 2.47 2.70 2.73 2.69 2.85 2.46 2.31 2.28 2.02
1.10 1.32 1.45 1.60 1.79 1.91 1.99 2.09 2.29 2.61 2.78 2.78 2.77 2.90 2.97 2.97 2.89 2.86 2.70 2.48 2.25 2.00 1.95 1.97 2.07 2.10 2.16 2.03 2.11 2.18 2.25 2.42 2.49 2.40 2.32 2.45 2.51 2.63 2.87 2.82 2.55 2.41 2.21
0.87 1.02 1.25 1.52 1.66 1.62 1.69 1.80 2.05 2.31 2.43 2.37 2.50 2.74 2.82 2.89 2.79 2.81 2.53 2.26 2.06 1.98 2.05 2.03 1.91 1.86 1.96 1.86 2.12 2.08 2.16 2.40 2.46 2.22 2.44 2.48 2.50 2.79 3.01 3.10 3.19 2.88 2.59
0.87 0.93 1.01 1.20 1.28 1.29 1.38 1.52 1.90 2.22 2.36 2.41 2.54 2.64 2.73 2.72 2.63 2.51 2.31 2.09 2.10 2.04 2.18 2.14 2.01 1.89 1.97 2.11 2.39 2.35 2.32 2.53 2.51 2.47 2.65 2.62 2.59 2.77 2.90 3.08 3.29 3.37 3.04
0.68 0.75 0.77 0.88 1.00 1.19 1.43 1.61 1.74 2.04 2.19 2.25 2.36 2.41 2.63 2.55 2.38 2.28 2.10 1.92 1.84 1.89 2.09 2.23 2.14 2.05 2.08 2.26 2.46 2.47 2.62 2.75 2.74 2.80 2.88 2.83 2.70 2.81 2.88 2.92 3.17 3.46 3.39
0.54 0.60 0.76 0.89 1.03 1.19 1.38 1.47 1.50 1.66 1.81 1.92 2.11 2.11 2.14 2.21 2.28 2.14 1.89 1.80 1.80 1.87 1.96 2.15 2.22 2.17 2.21 2.32 2.38 2.36 2.66 2.78 2.79 2.75 2.74 2.72 2.84 2.86 2.78 2.89 3.07 3.34 3.42
0.62 0.65 0.85 1.01 1.11 1.24 1.27 1.29 1.34 1.47 1.63 1.80 2.01 2.11 2.10 2.15 2.18 2.05 1.87 1.82 1.84 1.92 1.96 2.10 2.13 2.03 2.03 2.24 2.28 2.34 2.62 2.77 2.66 2.63 2.62 2.41 2.47 2.54 2.44 2.59 2.67 2.81 3.06
0.73 0.80 0.92 0.98 0.99 1.08 1.19 1.19 1.14 1.29 1.48 1.70 2.04 2.23 2.25 2.20 2.14 1.99 1.76 1.69 1.70 1.80 1.86 1.89 1.93 1.99 2.10 2.20 2.21 2.23 2.24 2.26 2.34 2.56 2.67 2.45 2.42 2.32 2.32 2.35 2.34 2.43 2.56
0.77 0.88 0.91 1.02 0.98 0.94 1.03 1.01 1.04 1.14 1.39 1.62 1.82 1.92 1.84 1.79 1.83 1.76 1.63 1.55 1.58 1.65 1.74 1.81 1.92 1.99 2.04 2.09 2.17 2.24 2.16 2.14 2.18 2.32 2.39 2.35 2.32 2.26 2.35 2.26 2.24 2.32 2.47
0.69 0.77 0.78 0.85 0.89 0.97 1.02 0.91 0.92 0.98 1.13 1.34 1.44 1.57 1.57 1.55 1.53 1.60 1.64 1.66 1.74 1.73 1.80 1.87 1.90 1.90 1.89 1.82 1.86 1.95 1.96 2.08 2.04 1.96 1.98 2.00 2.03 2.02 2.05 1.91 2.07 2.29 2.43
0.50 0.49 0.67 0.76 0.73 0.76 0.84 0.75 0.78 0.92 1.07 1.17 1.28 1.50 1.63 1.65 1.64 1.68 1.79 1.84 1.82 1.82 1.85 1.81 1.86 1.87 1.63 1.80 1.82 1.81 1.92 1.99 1.99 1.91 1.81 1.72 1.72 1.65 1.65 1.61 1.70 1.96 2.16
0.48 0.43 0.53 0.69 0.69 0.70 0.70 0.79 0.91 1.04 1.15 1.30 1.44 1.61 1.72 1.80 1.81 1.78 1.91 1.87 1.88 1.94 1.89 1.82 1.83 1.86 1.92 1.97 1.79 1.65 1.62 1.73 1.79 1.77 1.75 1.55 1.46 1.62 1.60 1.62 1.59 1.61 1.74
0.50 0.49 0.49 0.53 0.59 0.65 0.71 0.85 1.14 1.39 1.45 1.58 1.76 1.85 1.94 1.89 1.87 1.88 1.93 2.01 2.09 2.12 2.09 2.03 1.95 1.94 1.92 1.89 1.69 1.68 1.62 1.66 1.68 1.71 1.75 1.73 1.63 1.66 1.78 1.75 1.68 1.57 1.52
0.50 0.54 0.59 0.62 0.71 0.77 0.79 0.98 1.21 1.51 1.69 1.73 1.82 1.96 2.04 2.08 2.10 2.13 2.11 2.20 2.30 2.25 2.16 2.10 2.11 2.05 2.06 2.13 1.94 1.95 1.81 1.82 1.85 1.88 1.88 1.83 1.71 1.82 1.79 1.72 1.72 1.66 1.63
0.62 0.64 0.67 0.80 0.99 1.06 1.07 1.20 1.32 1.46 1.64 1.71 1.83 2.00 2.22 2.27 2.29 2.44 2.53 2.49 2.43 2.28 2.28 2.27 2.23 2.23 2.27 2.50 2.31 2.14 1.99 2.01 2.01 2.10 2.08 2.09 1.92 1.90 1.84 1.70 1.73 1.75 1.75
0.74 0.72 0.75 0.91 1.15 1.28 1.31 1.41 1.56 1.66 1.66 1.74 1.89 2.09 2.27 2.35 2.42 2.58 2.65 2.61 2.55 2.51 2.45 2.38 2.42 2.42 2.41 2.58 2.35 2.16 2.03 2.09 2.22 2.22 2.13 2.16 2.15 1.96 1.96 1.89 1.81 1.80 1.77
0.84 0.86 0.91 1.06 1.27 1.44 1.42 1.49 1.58 1.63 1.69 1.69 1.81 1.95 2.11 2.14 2.22 2.48 2.57 2.64 2.65 2.58 2.48 2.42 2.30 2.36 2.35 2.28 2.16 2.08 2.04 2.13 2.23 2.28 2.20 2.16 2.15 1.93 1.85 1.71 1.68 1.72 1.61
0.87 0.93 0.99 1.16 1.40 1.56 1.59 1.68 1.59 1.68 1.73 1.75 1.89 2.04 2.11 2.15 2.26 2.36 2.39 2.46 2.52 2.46 2.35 2.37 2.32 2.28 2.29 2.28 2.05 1.83 1.81 1.85 1.88 2.02 2.14 2.07 1.96 1.75 1.57 1.53 1.50 1.40 1.27
0.80 0.86 0.97 1.05 1.15 1.34 1.52 1.63 1.71 1.77 1.78 1.80 1.87 1.97 2.09 2.09 2.14 2.26 2.35 2.44 2.54 2.61 2.49 2.37 2.28 2.27 2.22 2.09 1.91 1.73 1.66 1.77 1.89 1.99 2.04 1.91 1.78 1.60 1.45 1.36 1.25 1.18 1.22
0.83 0.85 0.94 0.97 1.03 1.13 1.26 1.35 1.48 1.62 1.69 1.75 1.81 1.84 1.89 2.00 2.09 2.10 2.18 2.18 2.28 2.29 2.26 2.19 2.17 2.17 2.12 1.96 1.88 1.71 1.59 1.71 1.90 1.97 1.98 1.83 1.76 1.66 1.55 1.46 1.40 1.38 1.38
0.90 0.92 0.93 0.92 0.96 1.03 1.19 1.32 1.42 1.57 1.70 1.77 1.80 1.74 1.69 1.78 1.84 1.89 1.87 1.88 1.82 1.83 1.80 1.81 1.80 1.76 1.68 1.56 1.44 1.43 1.45 1.53 1.70 1.72 1.81 1.87 1.82 1.76 1.66 1.55 1.47 1.43 1.40